,,PA_Meas_PMT16A,,PR_Meas_QMR101_102,,RH_Meas_QMH101,,SR_Meas_QMS101,,TA_Meas_QMH101,,GenWind,,GenWind,
time,status,PA,status,PR,status,RH,status,SR,status,TA,status,DirAvg,status,SpdAvg,
2016-06-10, 06:55:04,VALID,919.061,VALID,0,INVALID,114.145,VALID,76.6055,VALID,19.3338,VALID,137,VALID,0,
2016-06-10, 06:57:04,VALID,919.086,VALID,0,INVALID,114.237,VALID,78.8618,VALID,19.4703,VALID,137,VALID,0,
2016-06-10, 06:59:04,VALID,919.096,VALID,0,INVALID,114.199,VALID,84.986,VALID,19.5273,VALID,148,VALID,0,
2016-06-10, 07:00:04,VALID,919.111,VALID,0,INVALID,114.115,VALID,89.2836,VALID,19.6068,VALID,148,VALID,0,
2016-06-10, 07:01:04,VALID,919.096,VALID,0,INVALID,114.069,VALID,93.3664,VALID,19.6653,VALID,155,VALID,0,
2016-06-10, 07:02:04,VALID,919.15,VALID,0,INVALID,113.962,VALID,97.2342,VALID,19.7238,VALID,169,VALID,0,
2016-06-10, 07:03:04,VALID,919.18,VALID,0,INVALID,113.848,VALID,100.135,VALID,19.7238,VALID,159,VALID,0,
2016-06-10, 07:04:04,VALID,919.174,VALID,0,INVALID,113.688,VALID,100.995,VALID,19.7418,VALID,140,VALID,0,
2016-06-10, 07:05:04,VALID,919.187,VALID,0,INVALID,113.604,VALID,100.457,VALID,19.8018,VALID,132,VALID,0,
2016-06-10, 07:06:04,VALID,919.205,VALID,0,INVALID,113.528,VALID,96.9119,VALID,19.8198,VALID,120,VALID,0,
2016-06-10, 07:07:04,VALID,919.213,VALID,0,INVALID,113.406,VALID,95.9449,VALID,19.8783,VALID,129,VALID,0,
2016-06-10, 07:08:04,VALID,919.212,VALID,0,INVALID,113.307,VALID,96.9119,VALID,19.9578,VALID,137,VALID,0,
2016-06-10, 07:09:04,VALID,919.249,VALID,0,INVALID,113.208,VALID,98.4161,VALID,19.9758,VALID,133,VALID,0,
2016-06-10, 07:10:04,VALID,919.26,VALID,0,INVALID,113.032,VALID,97.8789,VALID,20.0163,VALID,141,VALID,0,
2016-06-10, 07:11:04,VALID,919.282,VALID,0,INVALID,113.017,VALID,97.0194,VALID,20.0538,VALID,129,VALID,0,
2016-06-10, 07:12:04,VALID,919.314,VALID,0,INVALID,113.017,VALID,91.1101,VALID,20.1139,VALID,128,VALID,0,
2016-06-10, 07:17:04,INVALID - VALUE NOT AVAILABLE,0,INVALID - VALUE NOT AVAILABLE,0,INVALID - VALUE NOT AVAILABLE,0,INVALID - VALUE NOT AVAILABLE,0,INVALID - VALUE NOT AVAILABLE,0,INVALID,360,INVALID,0,
2016-06-10, 07:29:04,VALID,919.494,VALID,0,INVALID,113.055,VALID,74.2418,VALID,20.3269,VALID,132,VALID,0,
2016-06-10, 07:32:04,VALID,919.512,VALID,0,INVALID,112.56,VALID,87.2422,VALID,20.4634,VALID,132,VALID,0,
2016-06-10, 07:33:04,VALID,919.529,VALID,0,INVALID,112.575,VALID,172.55,VALID,20.5414,VALID,132,VALID,0,
2016-06-10, 07:34:04,VALID,919.547,VALID,0,INVALID,112.72,VALID,196.402,VALID,20.678,VALID,132,VALID,0,
2016-06-10, 07:35:04,VALID,919.559,VALID,0,INVALID,112.583,VALID,201.882,VALID,20.873,VALID,132,VALID,0,
2016-06-10, 07:36:04,VALID,919.591,VALID,0,INVALID,111.584,VALID,206.394,VALID,21.1461,VALID,132,VALID,0,
2016-06-10, 07:37:04,VALID,919.591,VALID,0,INVALID,110.593,VALID,211.874,VALID,21.4177,VALID,132,VALID,0,
2016-06-10, 07:38:04,VALID,919.621,VALID,0,INVALID,109.213,VALID,215.42,VALID,21.7103,VALID,132,VALID,0,
2016-06-10, 07:39:04,VALID,919.631,VALID,0,VALID,104,VALID,217.676,VALID,22.0225,VALID,132,VALID,0,
2016-06-10, 07:40:04,VALID,919.63,VALID,0,VALID,104,VALID,222.511,VALID,22.3364,VALID,132,VALID,0,
2016-06-10, 07:41:04,VALID,919.653,VALID,0,VALID,104,VALID,228.635,VALID,22.6079,VALID,132,VALID,0,
2016-06-10, 07:42:04,VALID,919.683,VALID,0,VALID,97.7017,VALID,236.478,VALID,22.8226,VALID,132,VALID,0,
2016-06-10, 07:43:04,VALID,919.699,VALID,0,VALID,89.1177,VALID,241.098,VALID,23.0959,VALID,132,VALID,0,
2016-06-10, 07:44:04,VALID,919.742,VALID,0,VALID,85.3136,VALID,243.999,VALID,23.3123,VALID,91,VALID,0,
2016-06-10, 07:45:04,VALID,919.748,VALID,0,VALID,81.1208,VALID,248.619,VALID,23.449,VALID,91,VALID,0,
2016-06-10, 07:46:04,VALID,919.795,VALID,0,VALID,81.5629,VALID,248.619,VALID,23.449,VALID,87,VALID,0,
2016-06-10, 07:47:04,VALID,919.884,VALID,0,VALID,84.071,VALID,256.247,VALID,23.5271,VALID,87,VALID,0,
2016-06-10, 07:48:04,VALID,919.899,VALID,0,VALID,81.4257,VALID,260.008,VALID,23.5857,VALID,87,VALID,0,
2016-06-10, 07:49:04,VALID,919.935,VALID,0,VALID,81.075,VALID,264.52,VALID,23.5839,VALID,87,VALID,0,
2016-06-10, 07:50:04,VALID,919.969,VALID,0,VALID,80.732,VALID,276.554,VALID,23.6638,VALID,87,VALID,0,
2016-06-10, 07:51:04,VALID,919.986,VALID,0,VALID,78.8719,VALID,282.248,VALID,23.6034,VALID,87,VALID,0,
2016-06-10, 07:52:04,VALID,920.013,VALID,0,VALID,82.0508,VALID,276.768,VALID,23.6815,VALID,87,VALID,0,
2016-06-10, 07:53:04,VALID,920.041,VALID,0,VALID,81.1284,VALID,276.124,VALID,23.7578,VALID,87,VALID,0,
2016-06-10, 07:54:04,VALID,920.077,VALID,0,VALID,80.7625,VALID,234.222,VALID,23.8962,VALID,85,VALID,0,
2016-06-10, 07:55:04,VALID,920.09,VALID,0,VALID,79.3216,VALID,262.586,VALID,23.6034,VALID,154,VALID,0,
2016-06-10, 07:56:04,VALID,920.14,VALID,0,VALID,80.3051,VALID,201.882,VALID,23.4472,VALID,184,VALID,0,
2016-06-10, 07:57:04,VALID,920.16,VALID,0,VALID,80.6862,VALID,192.749,VALID,23.252,VALID,169,VALID,0,
2016-06-10, 07:58:04,VALID,920.192,VALID,0,VALID,81.5096,VALID,250.553,VALID,22.977,VALID,167,VALID,0,
2016-06-10, 07:59:04,VALID,920.242,VALID,0,VALID,83.8271,VALID,210.262,VALID,22.686,VALID,165,VALID,0,
2016-06-10, 08:00:04,VALID,920.246,VALID,0,VALID,88.4316,VALID,336.398,VALID,22.5086,VALID,169,VALID,0,
2016-06-10, 08:01:04,VALID,920.241,VALID,0,VALID,96.1236,VALID,345.638,VALID,22.4501,VALID,172,VALID,0,
2016-06-10, 08:02:04,VALID,920.258,VALID,0,VALID,99.4856,VALID,350.151,VALID,22.5086,VALID,162,VALID,0,
2016-06-10, 08:03:04,VALID,920.293,VALID,0,VALID,100.98,VALID,341.448,VALID,22.6079,VALID,176,VALID,0,
2016-06-10, 08:04:04,VALID,920.289,VALID,0,VALID,95.3918,VALID,333.068,VALID,22.6843,VALID,173,VALID,0,
2016-06-10, 08:05:04,VALID,920.29,VALID,0,VALID,95.2698,VALID,324.472,VALID,22.8014,VALID,172,VALID,0,
2016-06-10, 08:06:04,VALID,920.284,VALID,0,VALID,86.3504,VALID,320.604,VALID,22.8989,VALID,184,VALID,0,
2016-06-10, 08:07:04,VALID,920.275,VALID,0,VALID,84.4751,VALID,321.786,VALID,22.9948,VALID,166,VALID,0,
2016-06-10, 08:08:04,VALID,920.291,VALID,0,VALID,81.8221,VALID,319.637,VALID,23.1527,VALID,196,VALID,0,
2016-06-10, 08:09:04,VALID,920.263,VALID,0,VALID,80.5643,VALID,312.224,VALID,23.2307,VALID,193,VALID,0,
2016-06-10, 08:10:04,VALID,920.231,VALID,0,VALID,80.145,VALID,315.232,VALID,23.3478,VALID,192,VALID,0,
2016-06-10, 08:11:04,VALID,920.196,VALID,0,VALID,76.8898,VALID,318.993,VALID,23.5235,VALID,192,VALID,0,
2016-06-10, 08:12:04,VALID,920.162,VALID,0,VALID,78.5059,VALID,324.687,VALID,23.7205,VALID,192,VALID,0,
2016-06-10, 08:13:04,VALID,920.142,VALID,0,VALID,77.9189,VALID,335.861,VALID,23.7968,VALID,169,VALID,0,
2016-06-10, 08:14:04,VALID,920.124,VALID,0,VALID,78.5974,VALID,344.241,VALID,23.6797,VALID,156,VALID,0,
2016-06-10, 08:15:04,VALID,920.101,VALID,0,VALID,77.4615,VALID,331.026,VALID,23.543,VALID,152,VALID,0,
2016-06-10, 08:16:04,VALID,920.112,VALID,0,VALID,79.7867,VALID,321.786,VALID,23.5235,VALID,140,VALID,0,
2016-06-10, 08:17:04,VALID,920.134,VALID,0,VALID,78.6737,VALID,360.787,VALID,23.5235,VALID,136,VALID,0,
2016-06-10, 08:18:04,VALID,920.159,VALID,0,VALID,79.1997,VALID,182.435,VALID,23.4827,VALID,136,VALID,0,
2016-06-10, 08:19:04,VALID,920.124,VALID,0,VALID,79.0243,VALID,158.583,VALID,23.4454,VALID,153,VALID,0,
2016-06-10, 08:20:04,VALID,920.179,VALID,0,VALID,79.032,VALID,169.864,VALID,23.1331,VALID,152,VALID,0,
2016-06-10, 08:21:04,VALID,920.189,VALID,0,VALID,80.8844,VALID,167.393,VALID,22.8794,VALID,152,VALID,0,
2016-06-10, 08:22:04,VALID,920.181,VALID,0,VALID,82.1499,VALID,171.046,VALID,22.7428,VALID,152,VALID,0,
2016-06-10, 08:23:04,VALID,920.182,VALID,0,VALID,81.7078,VALID,177.17,VALID,22.663,VALID,152,VALID,0,
2016-06-10, 08:24:04,VALID,920.155,VALID,0,VALID,83.0571,VALID,142.145,VALID,22.624,VALID,159,VALID,0,
2016-06-10, 08:25:04,VALID,920.173,VALID,0,VALID,84.7724,VALID,125.921,VALID,22.5867,VALID,155,VALID,0,
2016-06-10, 08:26:04,VALID,920.155,VALID,0,VALID,89.1482,VALID,119.26,VALID,22.5069,VALID,130,VALID,0,
2016-06-10, 08:27:04,VALID,920.162,VALID,0,VALID,95.8568,VALID,119.797,VALID,22.4679,VALID,137,VALID,0,
2016-06-10, 08:28:04,VALID,920.171,VALID,0,VALID,100.004,VALID,121.731,VALID,22.4094,VALID,94,VALID,0,
2016-06-10, 08:29:04,VALID,920.133,VALID,0,VALID,96.1694,VALID,127.425,VALID,22.3313,VALID,89,VALID,0,
2016-06-10, 08:30:04,VALID,920.161,VALID,0,VALID,100.21,VALID,138.062,VALID,22.2728,VALID,85,VALID,0,
2016-06-10, 08:31:04,VALID,920.137,VALID,0,VALID,100.515,VALID,217.461,VALID,22.2533,VALID,98,VALID,0,
2016-06-10, 08:32:04,VALID,920.153,VALID,0,VALID,100.202,VALID,230.139,VALID,22.2533,VALID,100,VALID,0,
2016-06-10, 08:33:04,VALID,920.151,VALID,0,VALID,95.1936,VALID,414.293,VALID,22.3313,VALID,79,VALID,0,
2016-06-10, 08:34:04,VALID,920.134,VALID,0,VALID,96.3447,VALID,402.904,VALID,22.3703,VALID,98,VALID,0,
2016-06-10, 08:35:04,VALID,920.137,VALID,0,VALID,102.222,VALID,398.822,VALID,22.5069,VALID,123,VALID,0,
2016-06-10, 08:36:04,VALID,920.161,VALID,0,VALID,95.1631,VALID,419.558,VALID,22.6435,VALID,117,VALID,0,
2016-06-10, 08:37:04,VALID,920.129,VALID,0,VALID,93.4402,VALID,429.442,VALID,22.8777,VALID,133,VALID,0,
2016-06-10, 08:38:04,VALID,920.138,VALID,0,VALID,94.0348,VALID,436.426,VALID,23.0338,VALID,117,VALID,0,
2016-06-10, 08:39:04,VALID,920.112,VALID,0,VALID,84.6504,VALID,433.955,VALID,23.2698,VALID,123,VALID,0,
2016-06-10, 08:40:04,VALID,920.122,VALID,0,VALID,82.0356,VALID,445.451,VALID,23.5022,VALID,160,VALID,0,
2016-06-10, 08:41:04,VALID,920.112,VALID,0,VALID,81.7459,VALID,440.724,VALID,23.5821,VALID,152,VALID,0,
2016-06-10, 08:42:04,VALID,920.075,VALID,0,VALID,80.5185,VALID,422.136,VALID,23.6388,VALID,161,VALID,0,
2016-06-10, 08:43:04,VALID,920.073,VALID,0,VALID,80.1602,VALID,409.781,VALID,23.7169,VALID,173,VALID,0,
2016-06-10, 08:44:04,VALID,920.073,VALID,0,VALID,79.3216,VALID,395.598,VALID,23.756,VALID,174,VALID,0,
2016-06-10, 08:45:04,VALID,920.073,VALID,0,VALID,78.5669,VALID,383.672,VALID,23.8145,VALID,163,VALID,0,
2016-06-10, 08:46:04,VALID,920.089,VALID,0,VALID,79.6037,VALID,409.673,VALID,23.7932,VALID,173,VALID,0,
2016-06-10, 08:47:04,VALID,920.065,VALID,0,VALID,80.2746,VALID,408.169,VALID,23.7968,VALID,172,VALID,0,
2016-06-10, 08:48:04,VALID,920.068,VALID,0,VALID,80.1831,VALID,398.069,VALID,23.8163,VALID,175,VALID,0,
2016-06-10, 08:49:04,VALID,920.072,VALID,0,VALID,79.1006,VALID,370.887,VALID,23.7968,VALID,160,VALID,0,
2016-06-10, 08:50:04,VALID,920.067,VALID,0,VALID,78.3154,VALID,352.514,VALID,23.7968,VALID,168,VALID,0,
2016-06-10, 08:51:04,VALID,920.026,VALID,0,VALID,77.8579,VALID,404.731,VALID,23.7755,VALID,182,VALID,0,
2016-06-10, 08:52:04,VALID,920.009,VALID,0,VALID,76.8059,VALID,415.797,VALID,23.8358,VALID,165,VALID,0,
2016-06-10, 08:53:04,VALID,919.961,VALID,0,VALID,76.6611,VALID,423.211,VALID,23.8731,VALID,161,VALID,0,
2016-06-10, 08:54:04,VALID,919.945,VALID,0,VALID,78.384,VALID,428.26,VALID,24.0292,VALID,161,VALID,0,
2016-06-10, 08:55:04,VALID,919.943,VALID,0,VALID,76.3485,VALID,432.988,VALID,24.2049,VALID,212,VALID,0,
2016-06-10, 08:56:04,VALID,919.915,VALID,0,VALID,76.1351,VALID,438.038,VALID,24.3435,VALID,206,VALID,0,
2016-06-10, 08:57:04,VALID,919.926,VALID,0,VALID,76.3485,VALID,439.757,VALID,24.5368,VALID,184,VALID,0,
2016-06-10, 08:58:04,VALID,919.89,VALID,0,VALID,73.566,VALID,441.905,VALID,24.6345,VALID,172,VALID,0,
2016-06-10, 08:59:04,VALID,919.858,VALID,0,VALID,73.9166,VALID,445.773,VALID,24.7107,VALID,163,VALID,0,
2016-06-10, 09:00:04,VALID,919.864,VALID,0,VALID,72.7426,VALID,446.633,VALID,24.8669,VALID,161,VALID,0,
2016-06-10, 09:01:04,VALID,919.847,VALID,0,VALID,74.4198,VALID,450.716,VALID,24.8102,VALID,136,VALID,0,
2016-06-10, 09:02:04,VALID,919.867,VALID,0,VALID,74.0462,VALID,453.294,VALID,24.8083,VALID,139,VALID,0,
2016-06-10, 09:03:04,VALID,919.881,VALID,0,VALID,72.796,VALID,457.377,VALID,25.0055,VALID,178,VALID,0,
2016-06-10, 09:04:04,VALID,919.884,VALID,0,VALID,72.8722,VALID,458.774,VALID,24.9078,INVALID,360,INVALID,0,
2016-06-10, 09:05:04,VALID,919.887,VALID,0,VALID,72.4301,VALID,460.385,VALID,24.9078,VALID,143,VALID,0.844141,
2016-06-10, 09:06:04,VALID,919.881,VALID,0,VALID,72.8722,VALID,462.534,VALID,24.7907,VALID,123,VALID,0.824219,
2016-06-10, 09:07:04,VALID,919.91,VALID,0,VALID,73.5507,VALID,465.757,VALID,24.7126,VALID,165,VALID,0,
2016-06-10, 09:08:04,VALID,919.918,VALID,0,VALID,74.6409,VALID,469.625,VALID,24.7907,VALID,162,VALID,0,
2016-06-10, 09:09:04,VALID,919.896,VALID,0,VALID,75.4032,VALID,471.237,VALID,24.7107,VALID,125,VALID,0,
2016-06-10, 09:10:04,VALID,919.915,VALID,0,VALID,74.9687,VALID,473.601,VALID,24.6912,VALID,105,VALID,0,
2016-06-10, 09:11:04,VALID,919.957,VALID,0,VALID,74.7095,VALID,477.576,VALID,24.6326,VALID,95,VALID,0,
2016-06-10, 09:12:04,VALID,919.92,VALID,0,VALID,73.9014,VALID,482.196,VALID,24.7302,VALID,70,VALID,0.09375,
2016-06-10, 09:13:04,VALID,919.932,VALID,0,VALID,73.6956,VALID,487.998,VALID,24.7302,VALID,65,VALID,0,
2016-06-10, 09:14:04,VALID,919.941,VALID,0,VALID,72.5444,VALID,496.486,VALID,24.9255,VALID,89,VALID,0,
2016-06-10, 09:15:04,VALID,919.935,VALID,0,VALID,73.4592,VALID,500.139,VALID,25.0036,VALID,49,VALID,0.284766,
2016-06-10, 09:16:04,VALID,919.923,VALID,0,VALID,73.9853,VALID,505.081,VALID,25.0231,VALID,132,VALID,0,
2016-06-10, 09:17:04,VALID,919.934,VALID,0,VALID,75.0602,VALID,506.692,VALID,25.0426,VALID,147,VALID,0,
2016-06-10, 09:18:04,VALID,919.907,VALID,0,VALID,71.0121,VALID,507.23,VALID,25.1012,VALID,163,VALID,0,
2016-06-10, 09:19:04,VALID,919.882,VALID,0,VALID,70.8292,VALID,509.701,VALID,25.2574,VALID,116,VALID,0,
2016-06-10, 09:20:04,VALID,919.886,VALID,0,VALID,72.3005,VALID,485.634,VALID,25.4331,VALID,139,VALID,0,
2016-06-10, 09:21:04,VALID,919.893,VALID,0,VALID,71.5991,VALID,391.838,VALID,25.648,VALID,135,VALID,0,
2016-06-10, 09:22:04,VALID,919.881,VALID,0,VALID,70.0668,VALID,529.9,VALID,25.6675,VALID,177,VALID,0,
2016-06-10, 09:23:04,VALID,919.878,VALID,0,VALID,70.3336,VALID,535.702,VALID,25.7261,VALID,174,VALID,0,
2016-06-10, 09:24:04,VALID,919.896,VALID,0,VALID,69.8686,VALID,523.131,VALID,25.4136,VALID,155,VALID,0,
2016-06-10, 09:25:04,VALID,919.876,VALID,0,VALID,71.8659,VALID,514.751,VALID,25.2769,VALID,191,VALID,0,
2016-06-10, 09:26:04,VALID,919.881,VALID,0,VALID,70.4709,VALID,518.833,VALID,25.3941,VALID,186,VALID,0,
2016-06-10, 09:27:04,VALID,919.891,VALID,0,VALID,68.0161,VALID,523.668,VALID,25.5113,VALID,163,VALID,0,
2016-06-10, 09:28:04,VALID,919.884,VALID,0,VALID,68.4278,VALID,528.073,VALID,25.5698,VALID,188,VALID,0,
2016-06-10, 09:29:04,VALID,919.857,VALID,0,VALID,67.8027,VALID,464.79,VALID,25.7085,VALID,183,VALID,0,
2016-06-10, 09:30:04,VALID,919.864,VALID,0,VALID,67.9399,VALID,490.039,VALID,25.7261,VALID,193,VALID,0,
2016-06-10, 09:31:04,VALID,919.844,VALID,0,VALID,69.1215,VALID,553.859,VALID,25.8042,VALID,166,VALID,0,
2016-06-10, 09:32:04,VALID,919.855,VALID,0,VALID,66.987,VALID,563.959,VALID,25.9214,VALID,195,VALID,0,
2016-06-10, 09:33:04,VALID,919.836,VALID,0,VALID,66.7659,VALID,571.479,VALID,26.019,VALID,201,VALID,0,
2016-06-10, 09:34:04,VALID,919.862,VALID,0,VALID,66.9793,VALID,576.959,VALID,25.9604,VALID,167,VALID,0.151562,
2016-06-10, 09:35:04,VALID,919.845,VALID,0,VALID,67.8713,VALID,584.05,VALID,25.8257,VALID,153,VALID,0,
2016-06-10, 09:36:04,VALID,919.841,VALID,0,VALID,67.3986,VALID,582.331,VALID,25.7456,VALID,85,VALID,0,
2016-06-10, 09:37:04,VALID,919.872,VALID,0,VALID,67.7569,VALID,588.992,VALID,25.8628,VALID,146,VALID,0,
2016-06-10, 09:38:04,VALID,919.903,VALID,0,VALID,65.7977,VALID,586.306,VALID,25.9409,VALID,182,VALID,0,
2016-06-10, 09:39:04,VALID,919.919,VALID,0,VALID,66.4305,VALID,586.091,VALID,26.0561,VALID,175,VALID,0,
2016-06-10, 09:40:04,VALID,919.94,VALID,0,VALID,65.1116,VALID,594.579,VALID,26.2534,VALID,162,VALID,0,
2016-06-10, 09:41:04,VALID,919.92,VALID,0,VALID,65.5156,VALID,600.381,VALID,26.2925,VALID,71,VALID,0,
2016-06-10, 09:42:04,VALID,919.922,VALID,0,VALID,65.3022,VALID,596.406,VALID,25.978,VALID,83,VALID,0,
2016-06-10, 09:43:04,VALID,919.939,VALID,0,VALID,66.6668,VALID,592.431,VALID,25.8433,VALID,83,VALID,0,
2016-06-10, 09:44:04,VALID,919.925,VALID,0,VALID,67.1242,VALID,598.662,VALID,25.9995,VALID,61,VALID,0,
2016-06-10, 09:45:04,VALID,919.953,VALID,0,VALID,65.8053,VALID,604.786,VALID,26.312,VALID,43,VALID,0,
2016-06-10, 09:46:04,VALID,919.929,VALID,0,VALID,66.1255,VALID,613.167,VALID,26.6226,VALID,85,VALID,0,
2016-06-10, 09:47:04,VALID,919.946,VALID,0,VALID,65.8511,VALID,626.06,VALID,26.8765,VALID,85,VALID,0,
2016-06-10, 09:48:04,VALID,919.921,VALID,0,VALID,66.0112,VALID,627.779,VALID,26.9937,VALID,194,VALID,0,
2016-06-10, 09:49:04,VALID,919.978,VALID,0,VALID,63.4878,VALID,587.381,VALID,26.896,VALID,156,VALID,0,
2016-06-10, 09:50:04,VALID,919.978,VALID,0,VALID,67.0403,VALID,408.061,VALID,26.5835,VALID,129,VALID,0,
2016-06-10, 09:51:04,VALID,919.952,VALID,0,VALID,65.9807,VALID,284.934,VALID,26.4858,VALID,84,VALID,0.235938,
2016-06-10, 09:52:04,VALID,919.924,VALID,0,VALID,67.5435,VALID,306.852,VALID,26.2319,VALID,39,VALID,0.633984,
2016-06-10, 09:53:04,VALID,919.954,VALID,0,VALID,67.7798,VALID,349.076,VALID,26.0561,VALID,47,VALID,0.695313,
2016-06-10, 09:54:04,VALID,919.976,VALID,0,VALID,67.4062,VALID,299.116,VALID,25.8413,VALID,80,VALID,0,
2016-06-10, 09:55:04,VALID,919.937,VALID,0,VALID,68.9538,VALID,265.917,VALID,25.607,VALID,123,VALID,0,
2016-06-10, 09:56:04,VALID,919.933,VALID,0,VALID,69.7695,VALID,308.464,VALID,25.5855,VALID,123,VALID,0,
2016-06-10, 09:57:04,VALID,919.888,VALID,0,VALID,68.8013,VALID,364.87,VALID,25.6265,VALID,124,VALID,0,
2016-06-10, 09:58:04,VALID,919.886,VALID,0,VALID,69.0224,VALID,342.845,VALID,25.5289,VALID,124,VALID,0,
2016-06-10, 09:59:04,VALID,919.912,VALID,0,VALID,69.335,VALID,279.025,VALID,25.5484,VALID,124,VALID,0,
2016-06-10, 10:00:04,VALID,919.884,VALID,0,VALID,70.1812,VALID,248.619,VALID,25.5855,VALID,116,VALID,0,
2016-06-10, 10:01:04,VALID,919.904,VALID,0,VALID,69.7085,VALID,305.563,VALID,25.5093,VALID,164,VALID,0,
2016-06-10, 10:02:04,VALID,919.918,VALID,0,VALID,69.274,VALID,401.615,VALID,25.4117,VALID,169,VALID,0,
2016-06-10, 10:03:04,VALID,919.88,VALID,0,VALID,70.3031,VALID,321.786,VALID,25.4293,VALID,156,VALID,0,
2016-06-10, 10:04:04,VALID,919.879,VALID,0,VALID,69.5713,VALID,370.779,VALID,25.4722,VALID,132,VALID,0,
2016-06-10, 10:05:04,VALID,919.868,VALID,0,VALID,70.6691,VALID,348.754,VALID,25.5093,VALID,114,VALID,0,
2016-06-10, 10:06:04,VALID,919.865,VALID,0,VALID,69.6475,VALID,363.366,VALID,25.4917,VALID,155,VALID,0,
2016-06-10, 10:07:04,VALID,919.858,VALID,0,VALID,69.1215,VALID,473.063,VALID,25.5503,VALID,139,VALID,0,
2016-06-10, 10:08:04,VALID,919.846,VALID,0,VALID,70.6005,VALID,382.92,VALID,25.4527,VALID,171,VALID,0,
2016-06-10, 10:09:04,VALID,919.856,VALID,0,VALID,70.7453,VALID,403.656,VALID,25.4331,VALID,148,VALID,0,
2016-06-10, 10:10:04,VALID,919.831,VALID,0,VALID,70.9664,VALID,453.509,VALID,25.6284,VALID,75,VALID,0,
2016-06-10, 10:11:04,VALID,919.831,VALID,0,VALID,70.9435,VALID,405.59,VALID,25.8628,VALID,81,VALID,0,
2016-06-10, 10:12:04,VALID,919.831,VALID,0,VALID,66.1255,VALID,366.267,VALID,25.9409,VALID,100,VALID,0,
2016-06-10, 10:13:04,VALID,919.788,VALID,0,VALID,66.339,VALID,462.964,VALID,25.7651,VALID,100,VALID,0,
2016-06-10, 10:14:04,VALID,919.741,VALID,0,VALID,66.7354,VALID,363.903,VALID,25.687,VALID,100,VALID,0,
2016-06-10, 10:15:04,VALID,919.71,VALID,0,VALID,67.5663,VALID,348.539,VALID,25.7066,VALID,100,VALID,0,
2016-06-10, 10:16:04,VALID,919.713,VALID,0,VALID,66.926,VALID,421.062,VALID,25.687,VALID,100,VALID,0,
2016-06-10, 10:17:04,VALID,919.686,VALID,0,VALID,67.1623,VALID,522.809,VALID,25.8452,VALID,100,VALID,0,
2016-06-10, 10:18:04,VALID,919.688,VALID,0,VALID,66.6973,VALID,520.23,VALID,25.8823,VALID,75,VALID,0,
2016-06-10, 10:19:04,VALID,919.672,VALID,0,VALID,67.0708,VALID,460.815,VALID,25.8413,VALID,85,VALID,0,
2016-06-10, 10:20:04,VALID,919.672,VALID,0,VALID,68.0085,VALID,475.105,VALID,25.8804,VALID,69,VALID,0,
2016-06-10, 10:21:04,VALID,919.719,VALID,0,VALID,67.0403,VALID,465.328,VALID,26.0171,VALID,54,VALID,0,
2016-06-10, 10:22:04,VALID,919.69,VALID,0,VALID,68.9081,VALID,541.718,VALID,26.0737,VALID,54,VALID,0,
2016-06-10, 10:23:04,VALID,919.713,VALID,0,VALID,68.2143,VALID,590.389,VALID,26.1147,VALID,54,VALID,0,
2016-06-10, 10:24:04,VALID,919.68,VALID,0,VALID,65.813,VALID,505.618,VALID,26.1147,VALID,38,VALID,0,
2016-06-10, 10:25:04,VALID,919.677,VALID,0,VALID,65.4318,VALID,390.334,VALID,26.1928,VALID,38,VALID,0,
2016-06-10, 10:26:04,VALID,919.689,VALID,0,VALID,66.0569,VALID,461.675,VALID,26.2124,VALID,51,VALID,0,
2016-06-10, 10:27:04,VALID,919.686,VALID,0,VALID,66.156,VALID,478.221,VALID,26.2124,VALID,50,VALID,0,
2016-06-10, 10:28:04,VALID,919.733,VALID,0,VALID,66.4152,VALID,521.519,VALID,26.3686,VALID,50,VALID,0,
2016-06-10, 10:29:04,VALID,919.706,VALID,0,VALID,64.0062,VALID,470.807,VALID,26.5444,VALID,47,VALID,0,
2016-06-10, 10:30:04,VALID,919.71,VALID,0,VALID,63.5183,VALID,505.296,VALID,26.7007,VALID,48,VALID,0,
2016-06-10, 10:31:04,VALID,919.735,VALID,0,VALID,62.5425,VALID,543.652,VALID,26.857,VALID,49,VALID,0,
2016-06-10, 10:32:04,VALID,919.75,VALID,0,VALID,63.4726,VALID,564.603,VALID,27.1305,VALID,22,VALID,0,
2016-06-10, 10:33:04,VALID,919.777,VALID,0,VALID,61.2237,VALID,572.661,VALID,27.3042,VALID,23,VALID,0,
2016-06-10, 10:34:04,VALID,919.768,VALID,0,VALID,61.2618,VALID,574.81,VALID,27.3844,VALID,38,VALID,0,
2016-06-10, 10:35:04,VALID,919.792,VALID,0,VALID,60.1411,VALID,566.967,VALID,27.404,VALID,23,VALID,0,
2016-06-10, 10:36:04,VALID,919.8,VALID,0,VALID,58.3344,VALID,616.39,VALID,27.5428,VALID,13,VALID,0,
2016-06-10, 10:37:04,VALID,919.804,VALID,0,VALID,57.7398,VALID,628.961,VALID,27.6601,VALID,13,VALID,0,
2016-06-10, 10:38:04,VALID,919.811,VALID,0,VALID,58.2963,VALID,657.755,VALID,27.6992,VALID,21,VALID,0,
2016-06-10, 10:39:04,VALID,919.779,VALID,0,VALID,57.4806,VALID,530.544,VALID,27.6601,VALID,12,VALID,0,
2016-06-10, 10:40:04,VALID,919.756,VALID,0,VALID,60.751,VALID,685.367,VALID,27.6406,VALID,21,VALID,0,
2016-06-10, 10:41:04,VALID,919.78,VALID,0,VALID,59.1272,VALID,698.045,VALID,27.6796,VALID,172,VALID,0,
2016-06-10, 10:42:04,VALID,919.798,VALID,0,VALID,59.4779,VALID,649.911,VALID,27.6406,VALID,172,VALID,0,
2016-06-10, 10:43:04,VALID,919.804,VALID,0,VALID,60.0268,VALID,644.647,VALID,27.5798,VALID,215,VALID,0,
2016-06-10, 10:44:04,VALID,919.799,VALID,0,VALID,60.0344,VALID,625.737,VALID,27.5994,VALID,217,VALID,0,
2016-06-10, 10:45:04,VALID,919.83,VALID,0,VALID,58.7003,VALID,554.181,VALID,27.5994,VALID,186,VALID,0,
2016-06-10, 10:46:04,VALID,919.824,VALID,0,VALID,60.6595,VALID,610.695,VALID,27.6601,VALID,100,VALID,0,
2016-06-10, 10:47:04,VALID,919.791,VALID,0,VALID,58.2886,VALID,731.997,VALID,27.6385,VALID,122,VALID,0,
2016-06-10, 10:48:04,VALID,919.803,VALID,0,VALID,60.3927,VALID,738.121,VALID,27.3649,VALID,114,VALID,1.01406,
2016-06-10, 10:49:04,VALID,919.786,VALID,0,VALID,58.4564,VALID,754.989,VALID,27.15,VALID,116,VALID,0.0417969,
2016-06-10, 10:50:04,VALID,919.757,VALID,0,VALID,59.9429,VALID,754.774,VALID,27.2086,VALID,117,VALID,0,
2016-06-10, 10:51:04,VALID,919.719,VALID,0,VALID,59.2416,VALID,747.898,VALID,27.3844,VALID,196,VALID,0,
2016-06-10, 10:52:04,VALID,919.719,VALID,0,VALID,57.0003,VALID,746.286,VALID,27.5798,VALID,216,VALID,0,
2016-06-10, 10:53:04,VALID,919.734,VALID,0,VALID,57.9303,VALID,709.434,VALID,27.658,VALID,171,VALID,0,
2016-06-10, 10:54:04,VALID,919.745,VALID,0,VALID,56.8554,VALID,755.204,VALID,27.6775,VALID,151,VALID,0,
2016-06-10, 10:55:04,VALID,919.74,VALID,0,VALID,55.4985,VALID,755.526,VALID,27.5603,VALID,129,VALID,0,
2016-06-10, 10:56:04,VALID,919.769,VALID,0,VALID,56.8859,VALID,757.782,VALID,27.5603,VALID,214,VALID,0,
2016-06-10, 10:57:04,VALID,919.735,VALID,0,VALID,55.5442,VALID,759.502,VALID,27.6971,VALID,225,VALID,0.265625,
2016-06-10, 10:58:04,VALID,919.715,VALID,0,VALID,54.05,VALID,761.221,VALID,27.6971,VALID,229,VALID,0,
2016-06-10, 10:59:04,VALID,919.713,VALID,0,VALID,54.7285,VALID,770.675,VALID,27.658,VALID,187,VALID,0,